#timestamp,LO_Frequency,Hit,StdDev 
1512882015.6,286047000.1,N
1512882035.5,286047002.8,N
1512882055.3,286047002.8,N
1512882075.1,286047004.0,N
1512882095.9,286047003.8,N
1512882115.7,286047002.0,N
1512882135.6,286047002.2,N
1512882155.4,286047001.9,N
1512882175.2,286047001.4,N
1512882195.1,286047002.7,N
1512882196.0,286047002.7,N
1512882215.8,286047001.7,N
1512882235.7,286047002.2,N
1512882255.5,286047000.3,N
1512882275.3,286047000.9,N
1512882295.2,286046998.6,N
1512882315.0,286047001.1,N
1512882315.9,286047001.1,N
1512882335.7,286047000.2,N
1512882355.6,286047001.8,N
1512882375.4,286047004.7,Y
1512882395.3,286047011.9,P
1512882415.1,286047001.1,N
1512882435.8,286046999.3,N
1512882455.7,286046998.4,N
1512882475.5,286046999.5,N
1512882495.4,286046999.3,N
1512882515.2,286046998.8,N
1512882535.0,286046998.7,N
1512882535.9,286046998.7,N
1512882555.8,286047001.2,N
1512882575.6,286047002.7,N
1512882595.4,286046999.8,N
1512882615.3,286047002.8,N
1512882635.1,286046999.9,N
1512882655.9,286046998.9,N
1512882675.7,286047001.0,N
1512882695.5,286047000.5,N
1512882715.4,286047002.1,N
1512882735.2,286047004.2,N
1512882755.1,286047002.6,N
1512882756.0,286047002.6,N
1512882775.8,286046999.7,N
1512882795.6,286047002.8,N
1512882815.5,286047002.4,N
1512882835.3,286047002.5,N
1512882855.1,286047001.9,N
1512882875.9,286047004.4,N
1512882895.7,286047000.6,N
1512882915.6,286046999.9,N
1512882935.4,286046997.0,N
1512882955.2,286046996.1,N
1512882975.1,286046995.2,N
1512882976.0,286046995.2,N
1512882995.8,286046997.5,N
1512883015.7,286046996.0,N
1512883035.5,286046994.2,N
1512883055.3,286046994.4,N
1512883075.2,286046994.1,N
1512883095.0,286046994.1,N
1512883095.9,286046994.1,N
1512883115.8,286046997.4,N
1512883135.6,286046998.3,N
1512883155.4,286046999.3,N
1512883175.3,286047001.0,N
1512883195.1,286046999.1,N
1512883215.8,286046993.4,N
1512883235.7,286046993.7,N
1512883255.5,286046995.5,N
1512883275.4,286046997.7,N
1512883295.2,286046997.0,N
1512883315.0,286046996.7,N
1512883315.9,286046996.7,N
1512883335.8,286046995.2,N
1512883355.6,286046994.9,N
1512883375.5,286046997.4,N
1512883395.3,286046999.3,N
1512883415.1,286046995.4,N
1512883435.9,286046999.0,N
1512883455.7,286046998.3,N
1512883475.5,286047000.6,N
1512883495.4,286046999.9,N
1512883515.2,286046999.9,N
1512883535.1,286047002.5,N
1512883536.0,286047002.5,N
1512883555.8,286047000.5,N
1512883575.6,286047000.2,N
1512883595.5,286047000.3,N
1512883615.3,286046998.1,N
1512883635.2,286047003.8,N
1512883655.9,286047006.0,N
1512883675.7,286047003.0,N
1512883695.6,286047000.4,N
1512883715.4,286046998.1,N
1512883735.3,286047002.5,N
1512883755.1,286047002.5,N
1512883756.0,286047002.5,N
1512883775.8,286047000.7,N
1512883795.7,286047001.1,N
1512883815.5,286046998.1,N
1512883835.3,286047000.6,N
1512883855.2,286047001.4,N
1512883875.0,286047003.7,N
1512883875.9,286047003.7,N
1512883895.8,286047000.0,N
1512883915.6,286047002.2,N
1512883935.4,286046998.3,N
1512883955.3,286046998.4,N
1512883975.1,286046998.7,N
1512883995.9,286047000.5,N
1512884015.7,286047002.6,N
1512884035.5,286047001.9,N
1512884055.4,286047001.8,N
1512884075.2,286047001.7,N
1512884095.1,286047002.2,N
1512884096.0,286047002.2,N
1512884115.8,286047001.8,N
1512884135.6,286047002.8,N
1512884155.5,286047001.2,N
1512884175.3,286047001.4,N
1512884195.1,286047001.5,N
1512884215.9,286047001.6,N
1512884235.7,286047000.2,N
1512884255.6,286047003.1,N
1512884275.4,286047003.5,N
1512884295.2,286047006.0,Y
1512884315.1,286047005.7,P
1512884316.0,286047005.7,N
1512884335.8,286047003.2,N
1512884355.7,286047005.2,N
1512884375.5,286047003.3,N
1512884395.3,286047004.4,N
1512884415.2,286047003.3,N
1512884435.0,286047004.2,N
1512884435.9,286047004.2,Y
1512884455.8,286046996.8,P
1512884475.6,286046999.4,N
1512884495.4,286046999.6,N
1512884515.3,286046999.2,N
1512884535.1,286046993.8,N
1512884555.9,286046997.4,N
1512884575.7,286046997.4,N
1512884595.5,286046994.1,N
1512884615.4,286046995.9,N
1512884635.2,286046995.7,N
1512884655.0,286046997.4,N
1512884655.9,286046997.4,N
1512884675.8,286046996.6,N
1512884695.6,286046996.6,N
1512884715.5,286046997.9,N
1512884735.3,286046995.5,N
1512884755.1,286046993.3,N
1512884775.9,286046992.0,Y
1512884795.7,286046997.3,P
1512884815.6,286046998.3,P
1512884835.4,286047000.3,N
1512884855.2,286047000.0,N
1512884875.1,286046999.8,N
1512884876.0,286046999.8,N
1512884895.8,286047002.4,N
1512884915.6,286046999.7,N
1512884935.5,286047002.6,N
1512884955.3,286047001.4,N
1512884975.2,286047002.8,N
1512884995.9,286047004.2,N
1512885015.7,286047003.5,N
1512885035.6,286047003.2,N
1512885055.4,286047005.6,N
1512885075.3,286047003.6,N
1512885095.1,286047004.2,N
1512885096.0,286047004.2,N
1512885115.8,286047001.9,N
1512885135.7,286047003.9,N
1512885155.5,286047003.7,N
1512885175.3,286047003.4,N
1512885195.2,286047001.7,N
1512885215.0,286047004.4,N
1512885215.9,286047004.4,N
1512885235.8,286046999.8,N
1512885255.6,286047002.8,N
1512885275.4,286047001.3,N
1512885295.3,286047001.4,N
1512885315.1,286047000.2,N
1512885335.9,286047002.3,N
1512885355.7,286047003.5,N
1512885375.5,286047002.0,N
1512885395.4,286047004.0,N
1512885415.2,286047004.3,N
1512885435.0,286047002.3,N
1512885436.0,286047002.3,N
1512885455.8,286047004.4,Y
1512885475.6,286046996.9,P
1512885495.5,286046997.7,N
1512885515.3,286047000.8,N
1512885535.1,286047002.6,N
1512885555.9,286047000.0,N
1512885575.7,286047000.4,N
1512885595.6,286046998.1,N
